Weather in Kiprino

Russia / Altai Krai     53°31′31″N   82°03′47″E
temp.,
°C
wind,
m/s
gust,
m/s
humid.,
%
clouds,
%
prec.,
mm/h
press.,
hPa
HPBL,
m
23 april, fri
fri2301:000nne411710 0.0 1042351
04:00−1nne410774 0.0 1042319
07:00−1nne49835 0.0 1043336
10:00+4nne68535 0.0 10431120
13:00+6nne7840100 0.0 10412334
16:00+7ne7834100 0.0 10402500
19:00+7ne683953 0.0 10402012
22:00+3nne37575 0.0 1040158
24 april, sat
sat2401:000nne39695 0.0 1039217
04:000n38831 0.0 1038177
07:000n38855 0.0 1037231
10:00+5n57565 0.0 10361158
13:00+6n5644100 0.1 10341790
16:00+8n663565 0.0 10332201
19:00+8nne45365 0.0 10331815
22:00+4e22495 0.0 103325
25 april, sun
sun2501:00+3se115337 0.0 103310
04:00+1ssw11585 0.0 103310
07:00+2sse11590 0.0 103310
10:00+6s22445 0.0 1033616
13:00+9s213599 0.0 10311742
16:00+11s113299 0.0 10301872
19:00+10se1233100 0.0 10291772
22:00+8sse2244100 0.0 103037
26 april, mon
mon2601:00+6sse3553100 0.0 102990
04:00+4se3764100 0.0 1029150
07:00+3se377178 0.0 1028142
10:00+8se575151 0.0 1028761
13:00+12se55345 0.0 10261340
16:00+14sse452891 0.0 10241673
19:00+13sse4533100 0.0 1023947
22:00+9se484687 0.0 1022122
27 april, tue
tue2701:00+9s51247100 0.0 1021281
04:00+8sw41080100 0.1 1020198
07:00+8wsw4987100 0.1 1021228
10:00+12w6944100 0.0 1022966
13:00+15w71033100 0.0 10211986
16:00+16wsw6936100 0.0 10201912
19:00+13nne2252100 0.0 101952
22:00+11se1168100 0.4 101820